Welcome to the New NWS' Forecast!
Most changes are behind the scenes, but click here for differences you might notice.
Latest weather observations around

Duluth International Airport (KDLH)

Using English Units (Switch to International System of Units)
Date/ Time (CST) Wind (mph) Vis. (mi) Weather Sky Cond. Temp (°F) Rel. Humidity Wind Chill (°F) Heat Index (°F) Pressure Precip. (in)
Air Dwpt 6 hour Altimeter (inHg) Sea level (inHg) 1 hr 3 hr 6 hr
Max Min
Nov 19 12:55 NNW 13 9 Cloudy SCT032 OVC050 18 8     65% 5   30.14 30.22 0    
Nov 19 11:55 N 15 8 Light Snow OVC033 17 8     67% 2   30.13 30.22 0   0
Nov 19 10:55 N 11 7 Light Snow OVC032 17 9     70% 4   30.13 30.21 0    
Nov 19 10:28 N 13 2.5 Light Snow OVC031 17 10     73% 4   30.12   0    
Nov 19 10:16 N 11 2.5 Light Snow OVC029 17 10     73% 4   30.12   0    
Nov 19 10:08 N 11 1.5 Light Snow OVC029 17 10     73% 4   30.12   0    
Nov 19 09:55 N 14 1.5 Light Snow SCT024 OVC030 16 10     77% 2   30.11 30.2 0    
Nov 19 08:55 N 13 1.25 Light Snow OVC021 17 11     76% 4   30.09 30.17 0 0  
Nov 19 08:10 N 10 1.5 Light Snow OVC018 17 12     80% 5   30.06   0    
Nov 19 07:55 N 10 2.5 Light Snow OVC018 18 12     77% 6   30.05 30.14 0    
Nov 19 06:55 N 10 9 Light Snow OVC015 18 13     80% 6   30.04 30.12 0    
Nov 19 05:55 N 8 4 Light Snow OVC023 19 14     80% 9   30.02 30.1 0   0
Nov 19 04:55 N 10 4 Light Snow OVC020 19 14     80% 7   30 30.08 0    
Nov 19 04:38 NNE 9 2 Light Snow SCT018 OVC023 20 15     81% 9   29.99   0    
Nov 19 04:22 NNE 9 4 Light Snow and Fog/Mist BKN023 OVC036 20 16     84% 9   29.99   0    
Nov 19 04:04 NNE 6 3 Light Snow FEW017 OVC032 21 16     81% 13   29.99   0    
Nov 19 03:55 NNE 6 2 Light Snow and Fog/Mist FEW010 SCT017 OVC028 21 17     84% 13   29.98 30.06 0    
Nov 19 03:52 NNE 8 2 Light Snow and Fog/Mist FEW010 SCT017 OVC024 21 18     86% 12   29.98   0    
Nov 19 03:41 NNE 6 1.75 Light Snow and Fog/Mist SCT010 SCT016 OVC024 21 17     84% 13   29.98   0    
Nov 19 03:30 NNE 7 2 Light Snow and Fog/Mist SCT014 OVC024 21 17     84% 12   29.98   0    
Nov 19 03:18 NNE 6 1.5 Light Snow and Fog/Mist BKN014 OVC026 21 17     84% 13   29.98   0    
Nov 19 03:07 NNE 7 2 Light Snow and Fog/Mist BKN014 OVC028 21 17     84% 12   29.98   0    
Nov 19 02:55 NNE 6 2 Light Snow and Fog/Mist SCT014 SCT021 OVC028 21 17     84% 13   29.98 30.06 0 0  
Nov 19 02:31 NNE 6 1.75 Light Snow and Fog/Mist OVC018 21 17     84% 13   29.98   0    
Nov 19 02:21 NNE 6 5 Light Snow and Fog/Mist BKN015 OVC045 21 17     84% 13   29.98   0    
Nov 19 02:04 NNE 7 5 Light Snow FEW015 OVC039 22 17     81% 13   29.97   0    
Nov 19 01:55 NNE 6 2.5 Light Snow OVC035 22 17     81% 14   29.97 30.05 0    
Nov 19 01:25 NNE 6 1.25 Light Snow and Fog/Mist FEW010 SCT016 OVC024 22 18     84% 14   29.97   0    
Nov 19 01:09 NNE 6 1.5 Light Snow and Fog/Mist FEW009 BKN014 OVC020 22 18     84% 14   29.97   0    
Nov 19 00:55 NE 5 2 Light Snow FEW010 BKN014 OVC019 23 18     81% 17   29.96 30.04 0    
Nov 19 00:21 NNE 3 1 Light Snow VV016 23 18     81% 19   29.96   0    
Nov 19 00:12 NE 3 2.5 Light Snow OVC019 23 18     81% 19   29.96   0    
Nov 18 23:55 Calm 1.25 Light Snow and Fog/Mist OVC015 23 19     85%     29.97 30.05 0   0
Nov 18 23:51 Calm 1.25 Light Snow and Fog/Mist OVC015 23 19     86%     29.96   0    
Nov 18 23:41 Calm 1 Light Snow and Fog/Mist VV014 23 19     85%     29.97   0    
Nov 18 23:03 E 3 1.25 Light Snow and Fog/Mist OVC016 22 18     84% 17   29.97   0    
Nov 18 22:55 E 5 2 Light Snow and Fog/Mist OVC020 22 18     84% 16   29.97 30.05 0    
Nov 18 22:50 E 5 1.5 Light Snow and Fog/Mist BKN022 OVC032 21 18     86% 15   29.97   0    
Nov 18 22:42 E 5 2.5 Light Snow and Fog/Mist BKN020 OVC032 22 18     84% 16   29.96   0    
Nov 18 22:31 ESE 5 9 Light Snow SCT020 SCT025 OVC032 22 17     81% 16   29.96   0    
Nov 18 21:55 ESE 3 5 Light Snow OVC026 22 16     78% 17   29.97 30.05 0    
Nov 18 20:55 NE 3 10 Mostly Cloudy BKN026 BKN031 21 15     77% 16   29.97 30.06      
Nov 18 19:55 NE 3 10 Mostly Cloudy BKN026 BKN100 21 15     77% 16   29.97 30.06      
Nov 18 19:09 NE 3 10 Cloudy BKN025 OVC032 22 14     71% 17   29.97        
Nov 18 18:55 Calm 10 Mostly Cloudy BKN033 BKN100 22 14     71%     29.97 30.06      
Nov 18 17:55 E 3 10 Mostly Cloudy FEW026 BKN036 BKN100 21 13     70% 16   29.97 30.06      
Nov 18 16:55 Calm 10 Mostly Cloudy BKN110 22 13     68%     29.97 30.06      
Nov 18 15:55 SW 5 10 Cloudy OVC110 23 13     65% 17   29.98 30.06      
Nov 18 14:55 SW 8 10 Partly Cloudy FEW019 SCT120 22 12     65% 13   29.98 30.07      
Nov 18 13:55 WSW 9 10 Partly Cloudy SCT017 22 13     68% 12   30 30.09      
Nov 18 12:55 W 8 10 Partly Cloudy SCT017 21 12     68% 11   30.01 30.11      
Nov 18 12:14 WSW 8 10 Mostly Clear FEW017 20 12     71% 10   30.02        
Nov 18 12:07 WSW 9 10 Mostly Cloudy BKN016 19 12     74% 8   30.02        
Nov 18 11:55 SW 10 9 Partly Cloudy SCT016 19 11     70% 7   30.03 30.13 0   0
Nov 18 10:55 SW 10 9 Light Snow OVC015 17 10     73% 5   30.06 30.16 0    
Nov 18 10:33 WSW 8 9 Light Snow OVC015 17 10     73% 7   30.06   0    
Nov 18 09:55 W 14 7 Light Snow OVC013 17 10     73% 3   30.07 30.16 0    
Nov 18 08:55 W 14 8 Light Snow OVC013 15 9     76% 0   30.08 30.18 0 0  
Nov 18 07:55 W 15 9 Light Snow OVC013 15 9     76% 0   30.08 30.18 0    
Nov 18 06:55   9 Light Snow OVC012 14 8     77%     30.09 30.18 0    
Nov 18 06:29 W 14 9 Light Snow OVC013 13 7     77% -2   30.09   0    
Nov 18 05:55 W 13 9 Light Snow OVC015 13 7     77% -2   30.09 30.19 0   0
Nov 18 05:03   7 Light Snow OVC015 12 6     77%     30.11   0    
Nov 18 04:55 W 13 8 Light Snow OVC014 11 6     80% -4   30.11 30.21 0    
Nov 18 03:55 W 15 10 Cloudy OVC012 10 4     76% -7   30.13 30.22      
Nov 18 02:55 W 16 10 Mostly Cloudy BKN014 8 2     76% -10   30.15 30.25      
Nov 18 01:55 W 15 10 Clear CLR 8 0     69% -9   30.17 30.27      
Nov 18 00:55 W 11 10 Clear CLR 8 -1     66% -7   30.2 30.3      
Nov 17 23:55 W 10 10 Clear CLR 8 -1     66% -6   30.22 30.32      
Nov 17 22:55 W 11 10 Clear CLR 10 0     63% -4   30.24 30.34      
Nov 17 21:55 W 9 10 Clear CLR 10 -1     60% -3   30.26 30.36      
Nov 17 20:55 WNW 10 10 Clear CLR 12 0     58% -1   30.27 30.37      
Nov 17 19:55 WNW 10 10 Clear CLR 13 1     58% 0   30.28 30.38      
Nov 17 18:55 WNW 6 10 Clear CLR 14 2     58% 5   30.29 30.39      
Nov 17 17:55 WNW 6 10 Clear CLR 14 2     58% 5   30.32 30.41      
Nov 17 16:55 WNW 7 10 Clear CLR 17 3     53% 8   30.33 30.42      
Nov 17 15:55 WNW 10 10 Clear CLR 20 2     45% 9   30.34 30.43      
Nov 17 14:55 WNW 10 10 Clear CLR 20 4     49% 9   30.35 30.43      
Nov 17 13:55 WNW 9 10 Clear CLR 21 6     52% 11   30.35 30.43      
Nov 17 12:55 NW 9 10 Clear CLR 20 5     52% 9   30.36 30.45      
Nov 17 11:55 WNW 11 10 Mostly Clear FEW019 19 5     54% 7   30.38 30.47     0
Nov 17 11:03 WNW 9 10 Partly Cloudy SCT019 16 7     67% 4   30.4        
Nov 17 10:55 W 10 10 Mostly Cloudy BKN019 16 7     67% 4   30.41 30.5 0    
Nov 17 09:55 N 8 9 Light Snow BKN016 15 7     70% 4   30.41 30.5 0    
Nov 17 09:40 WNW 10 10 Mostly Cloudy BKN016 15 7     70% 3   30.41   0    
Nov 17 08:55 NNW 10 9 Light Snow SCT022 16 7     67% 4   30.38 30.47 0 0  
Nov 17 07:55 NW 8 9 Light Snow OVC025 18 7     62% 8   30.36 30.45 0    
Nov 17 06:55 NNW 10 9 Light Snow OVC025 18 7     62% 6   30.34 30.43 0    
Nov 17 05:55 NNW 10 9 Light Snow OVC025 18 8     65% 6   30.32 30.4 0   0
Nov 17 04:55 NNW 13 8 Light Snow OVC026 19 9     64% 6   30.3 30.39 0    
Nov 17 03:55 NNW 8 9 Light Snow OVC026 19 8     62% 9   30.28 30.37 0    
Nov 17 02:55 NNW 9 9 Light Snow OVC024 19 9     64% 8   30.27 30.36 0 0  
Nov 17 01:55 N 13 9 Light Snow OVC022 19 9     64% 6   30.24 30.32 0    
Nov 17 00:55 N 14 8 Light Snow OVC023 19 9     64% 6   30.22 30.3 0    
Nov 16 23:55 N 14 9 Light Snow OVC023 20 9     62% 7   30.2 30.28 0   0
Nov 16 22:55 NNE 11 9 Light Snow OVC025 20 10     65% 8   30.18 30.26 0    
Nov 16 21:55 N 10 9 Light Snow OVC024 20 10     65% 9   30.16 30.24 0    
Nov 16 20:55 N 11 8 Light Snow FEW018 OVC025 20 12     71% 8   30.13 30.21 0 0  
Nov 16 19:55 NNW 14 8 Light Snow OVC025 21 13     70% 8   30.11 30.19 0    
Nov 16 18:55 NNW 10 7 Light Snow OVC024 21 14     74% 10   30.1 30.17 0    
Nov 16 17:55 NW 9 9 Light Snow OVC022 21 13     70% 11   30.07 30.15 0   0
Nov 16 16:55 NNW 9 9 Light Snow OVC022 22 13     68% 12   30.04 30.11 0    
Nov 16 15:55 NW 10 9 Cloudy OVC019 23 14     68% 12   30.01 30.08      
Nov 16 14:55 NW 13 10 Cloudy OVC020 24 15     68% 12   29.97 30.03      
Nov 16 13:55 WNW 11 10 Cloudy OVC020 26 16     65% 16   29.96 30.03      
Nov 16 12:55 NW 13 10 Cloudy OVC018 26 17     68% 15   29.95 30.01      
Nov 16 11:55 WNW 16 10 Clear   25 18     74% 12   29.94 30     0
Nov 16 10:55 WNW 14 10 Cloudy OVC011 25 19     78% 13   29.94 30      
Nov 16 09:55 NW 16 10 Cloudy OVC010 25 20     81% 12   29.92 29.99      
Nov 16 08:55 NW 10 10 Cloudy OVC010 25 20     81% 15   29.9 29.96   0  
Nov 16 08:09 NNW 14 10 Cloudy OVC011 25 20     81% 13   29.89        
Nov 16 07:55 NNW 11 10 Cloudy OVC009 25 20     81% 14   29.89 29.95 0    
Nov 16 06:55 NW 14 9 Light Snow OVC009 26 21     81% 14   29.87 29.93 0    
Nov 16 06:46 NW 16 9 Light Snow OVC009 26 21     81% 14   29.87   0    
Nov 16 06:14 NNW 23 9 Light Snow OVC011 26 21     81% 11   29.86   0    
Nov 16 05:55   9 Clear   26 22     84%     29.85 29.91 0   0
Nov 16 04:55 NW 11 9 Light Snow OVC008 28 23     81% 18   29.82 29.87 0    
Nov 16 03:55 NW 18 9 Light Snow OVC008 28 24     85% 15   29.8 29.85 0    
Nov 16 02:55 NW 17 6 Light Snow and Fog/Mist OVC006 29 25     85% 17   29.78 29.83 0 0  
Nov 16 02:23 NW 15 4 Light Snow and Fog/Mist OVC005 29 26     89% 18   29.77   0    
Nov 16 01:55 NW 16 4 Light Freezing Drizzle and Fog/Mist OVC006 29 26     89% 17   29.76 29.81 0    
Nov 16 00:55 NW 17 8 Light Freezing Drizzle OVC006 31 27     85% 19   29.75 29.8 0    
Nov 16 00:27   6 Light Freezing Drizzle and Fog/Mist OVC005 32 29     88%     29.75   0    
Nov 15 23:55 NW 17 5 Light Drizzle and Fog/Mist OVC006 33 30     88% 22   29.73 29.78 0   0
Nov 15 22:55 NW 11 5 Light Drizzle and Fog/Mist OVC005 34 30     85% 26   29.72 29.78 0    
Nov 15 21:55 NNW 9 4 Fog/Mist OVC006 33 30     88% 25   29.71 29.76 0    
Nov 15 21:23 NW 10 2.5 Light Snow and Fog/Mist BKN006 OVC016 33 29     85% 25   29.7   0    
Nov 15 21:08 NW 10 2.5 Light Snow and Fog/Mist FEW007 BKN016 OVC095 32 29     88% 24   29.7   0    
Nov 15 20:55 NW 9 2.5 Light Snow and Fog/Mist SCT038 BKN065 OVC095 32 28     85% 24   29.7 29.75 0 0  
Nov 15 20:14 NW 7 2.5 Light Snow and Fog/Mist SCT007 OVC034 33 29     85% 27   29.71   0    
Nov 15 19:55 NW 7 3 Light Snow and Fog/Mist FEW005 SCT011 OVC040 32 29     88% 26   29.71 29.76 0    
Nov 15 19:36 NW 6 3 Light Snow and Fog/Mist SCT026 OVC044 32 28     85% 26   29.71   0    
Nov 15 19:05 NNW 6 5 Light Snow and Fog/Mist BKN027 OVC047 32 28     85% 26   29.71   0    
Nov 15 18:55 NNW 7 5 Light Snow SCT027 BKN045 OVC085 32 27     81% 26   29.71 29.77 0    
Nov 15 17:55 Calm 10 Cloudy OVC032 35 24     64%     29.71 29.76      
Nov 15 17:10 WNW 3 10 Cloudy OVC030 36 24     62% 33   29.71        
Nov 15 16:55 WNW 3 10 Cloudy OVC029 36 24     62% 33   29.71 29.76      
Nov 15 16:48 WNW 3 10 Cloudy OVC029 36 24     62% 33   29.71        
Nov 15 15:55 WSW 6 10 Mostly Cloudy SCT090 BKN100 36 24     62% 31   29.71 29.76      
Nov 15 14:55 WSW 9 10 Cloudy BKN080 BKN090 OVC110 36 24     62% 29   29.71 29.75      
Nov 15 13:55 SSW 7 10 Mostly Cloudy BKN075 36 23     59% 30   29.7 29.75      
Nov 15 12:55 WSW 8 10 Cloudy FEW050 BKN085 OVC100 36 23     59% 30   29.72 29.77      
Nov 15 11:55 SW 13 10 Mostly Clear FEW120 35 23     61% 26   29.75 29.8      
Nov 15 10:55 SW 14 10 Clear CLR 34 21     59% 25   29.77 29.83      
Nov 15 09:55 SSW 17 10 Mostly Clear FEW120 32 20     61% 21   29.79 29.84      
Nov 15 08:55 SSW 16 10 Mostly Clear FEW110 30 19     63% 19   29.81 29.86      
Nov 15 07:55 SSW 14 10 Clear CLR 30 18     60% 19   29.83 29.89      
Nov 15 06:55 SSW 11 10 Mostly Clear FEW120 30 19     63% 21   29.84 29.9      
Nov 15 05:55 SSW 17 10 Clear CLR 31 19     61% 19   29.86 29.91      
Nov 15 04:55 SSW 14 10 Clear CLR 31 19     61% 21   29.88 29.94      
Nov 15 03:55 SSW 16 10 Clear CLR 32 20     61% 21   29.89 29.96      
Nov 15 02:55 SSW 15 10 Clear CLR 33 20     58% 23   29.92 29.98      
Nov 15 01:55 SSW 16 10 Clear CLR 33 21     61% 23   29.93 29.99      
Nov 15 00:55 SSW 20 10 Clear and Windy CLR 33 21     61% 21   29.95 30.01      
Nov 14 23:55   10 Clear CLR 34 21     59%     29.97 30.03      
Nov 14 22:55 SSW 20 10 Clear and Windy CLR 34 22     61% 23   29.98 30.04      
Nov 14 21:55 SSW 21 10 Clear and Windy CLR 33 22     63% 21   30 30.06      
Nov 14 20:55   10 Clear CLR 33 22     63%     30.02 30.09      
Nov 14 19:55 S 16 10 Mostly Clear FEW120 32 21     64% 21   30.07 30.14      
Nov 14 18:55 S 13 10 Mostly Clear FEW120 32 20     61% 22   30.1 30.17      
Nov 14 17:55 SSE 11 10 Mostly Clear FEW120 32 19     58% 23   30.12 30.2      
Nov 14 16:55 SE 10 10 Mostly Clear FEW120 31 23     72% 22   30.16 30.24      
Nov 14 15:55 SE 10 10 Mostly Clear FEW120 30 21     69% 21   30.18 30.26      
Nov 14 14:55 SE 9 10 Mostly Clear FEW120 32 19     58% 24   30.22 30.29      
Nov 14 13:55 S 9 10 Clear CLR 31 19     61% 23   30.24 30.31      
Nov 14 11:55 S 8 10 Mostly Clear FEW050 27 16     63% 19   30.3 30.38      
Nov 14 10:55 SSE 8 10 Partly Cloudy SCT044 25 14     63% 16   30.31 30.4      
Nov 14 09:55 SSE 10 10 Partly Cloudy SCT048 23 14     68% 12   30.33 30.42      
Nov 14 08:55 SSE 8 10 Mostly Cloudy BKN048 20 12     71% 10   30.36 30.45      
Nov 14 07:55 SSE 7 10 Mostly Cloudy BKN049 17 11     76% 8   30.36 30.46      
Nov 14 06:55 SSE 7 10 Partly Cloudy SCT049 15 9     76% 5   30.38 30.48      
Nov 14 05:55 S 6 10 Clear CLR 13 7     77% 4   30.39 30.49      
Nov 14 04:55 S 5 10 Mostly Cloudy BKN060 13 7     77% 5   30.38 30.48      
Nov 14 03:55 Calm 10 Mostly Cloudy BKN060 14 8     77%     30.36 30.46      
Nov 14 02:55 Calm 10 Clear CLR 15 7     70%     30.35 30.44      
Nov 14 01:55 SSW 6 10 Cloudy OVC060 17 8     67% 9   30.35 30.45      
Nov 14 00:55 Calm 10 Cloudy OVC060 17 8     67%     30.35 30.45      
Nov 13 23:55 W 6 10 Cloudy OVC065 17 7     64% 9   30.34 30.44      
Nov 13 22:55 W 6 10 Cloudy OVC065 16 7     67% 7   30.34 30.44      
Nov 13 21:55 WNW 5 10 Cloudy OVC070 16 6     64% 9   30.35 30.45      
Nov 13 20:55 W 7 10 Cloudy OVC070 15 6     67% 5   30.34 30.44      
Nov 13 19:55 W 6 10 Cloudy OVC075 14 5     67% 5   30.33 30.44      
Nov 13 18:55 W 7 10 Mostly Cloudy BKN080 12 3     67% 1   30.34 30.45      
Nov 13 17:55 WNW 6 10 Mostly Cloudy FEW027 BKN080 13 3     64% 4   30.34 30.45      
Nov 13 16:55 W 10 10 Partly Cloudy SCT033 13 2     61% 0   30.33 30.44      
Nov 13 15:55 W 14 10 Partly Cloudy SCT033 15 2     55% 0   30.32 30.43      
Nov 13 14:55 W 15 10 Mostly Clear FEW033 16 2     53% 1   30.33 30.43      
Nov 13 13:55 WNW 11 10 Partly Cloudy SCT030 16 2     53% 3   30.33 30.43      
Nov 13 12:55 W 13 10 Partly Cloudy SCT028 15 2     55% 1   30.35 30.46      
Nov 13 12:23 WNW 13 10 Partly Cloudy SCT028 14 1     56% 0   30.36        
Nov 13 12:16 W 8 10 Mostly Cloudy BKN028 15 3     58% 4   30.36        
Nov 13 11:55 WNW 7 10 Mostly Clear FEW026 14 1     56% 4   30.37 30.47      
Nov 13 10:55 W 8 10 Mostly Clear FEW012 12 2     63% 0   30.38 30.49      
Nov 13 09:55 NW 13 10 Mostly Clear FEW012 11 1     64% -4   30.38 30.49      
Nov 13 08:55 NW 7 10 Mostly Clear FEW120 9 2     73% -2   30.38 30.49      
Nov 13 07:55 WNW 6 10 Mostly Clear FEW120 5 -1     76% -6   30.38 30.49      
Nov 13 06:55 NW 6 10 Clear CLR 3 -2     79% -8   30.38 30.49      
Nov 13 05:55 NW 6 10 Clear CLR 4 -2     76% -7   30.37 30.48      
Nov 13 04:55 NW 9 10 Clear CLR 5 0     79% -9   30.37 30.48      
Nov 13 03:55 NW 8 10 Clear CLR 5 0     79% -8   30.38 30.49      
Nov 13 02:55 NW 9 10 Clear CLR 6 0     75% -8   30.38 30.49      
Nov 13 01:55 NW 8 10 Clear CLR 7 0     72% -6   30.39 30.49      
Nov 13 00:55 WNW 7 10 Partly Cloudy SCT041 5 -3     69% -7   30.39 30.49      
Nov 12 23:55 WNW 6 10 Mostly Cloudy BKN041 8 -2     63% -2   30.39 30.49     0
Nov 12 22:55 WNW 6 10 Cloudy OVC042 10 -1     60% 0   30.4 30.5 0    
Nov 12 21:55 WNW 8 9 Light Snow BKN038 10 2     69% -2   30.4 30.5 0    
Nov 12 20:55 NW 10 9 Light Snow OVC036 11 3     70% -3   30.4 30.5 0 0  
Nov 12 19:55 NW 8 10 Cloudy FEW024 OVC035 11 2     66% -1   30.4 30.5 0    
Nov 12 18:55 NW 10 10 Mostly Clear FEW030 11 2     66% -3   30.39 30.49      
Nov 12 17:55 NW 11 10 Mostly Clear FEW030 12 2     63% -2   30.38 30.48      
Nov 12 16:55 NW 9 10 Mostly Cloudy BKN034 14 1     56% 2   30.37 30.46      
Nov 12 15:55 NW 14 10 Mostly Cloudy BKN034 16 3     56% 2   30.36 30.45      
Nov 12 14:55 WNW 14 10 Partly Cloudy SCT035 18 3     51% 4   30.35 30.44      
Nov 12 13:55 WNW 18 10 Mostly Cloudy BKN035 19 5     54% 4   30.36 30.45      
Nov 12 12:55 WNW 14 10 Mostly Cloudy BKN035 19 4     51% 6   30.37 30.46      
Nov 12 12:13 W 8 10 Mostly Cloudy BKN033 18 5     56% 8   30.38        
Nov 12 11:55 NW 15 10 Cloudy OVC029 18 5     56% 4   30.39 30.47     0
Nov 12 10:55 W 17 10 Cloudy OVC033 18 5     56% 3   30.38 30.47 0    
Nov 12 10:12 WNW 15 10 Partly Cloudy FEW014 SCT020 17 6     61% 2   30.37   0    
Nov 12 10:02 NW 14 9 Mostly Cloudy FEW014 BKN020 17 6     61% 3   30.37   0    
Nov 12 09:55 NW 15 7 Light Snow SCT020 SCT025 18 8     65% 4   30.36 30.45 0    
Nov 12 09:50 NW 16 7 Light Snow SCT020 SCT025 18 9     67% 3   30.36   0    
Nov 12 09:32 WNW 15 9 Light Snow BKN020 BKN025 OVC043 18 9     67% 4   30.36   0    
Nov 12 08:55 NW 14 5 Light Snow SCT022 OVC044 18 9     67% 4   30.36 30.45 0 0  
Nov 12 07:55 WNW 10 10 Cloudy OVC043 17 8     67% 5   30.35 30.44      
Nov 12 06:55 NW 10 10 Cloudy OVC042 17 7     64% 5   30.33 30.42      
Nov 12 05:55 WNW 13 10 Cloudy OVC044 18 7     62% 5   30.32 30.41 0   0
Nov 12 04:55 NW 11 9 Light Snow OVC043 18 10     71% 5   30.31 30.4 0    
Nov 12 03:55 WNW 9 9 Light Snow OVC044 19 11     70% 8   30.3 30.38 0    
Nov 12 02:55 WNW 13 9 Light Snow FEW013 FEW018 OVC045 19 13     77% 6   30.28 30.37 0 0  
Nov 12 01:55 WNW 9 5 Light Snow OVC042 19 13     77% 8   30.28 30.36 0    
Nov 12 00:55 WNW 10 9 Light Snow OVC040 20 13     74% 9   30.27 30.35 0    
Nov 11 23:55 W 8 8 Light Snow FEW015 OVC034 20 14     77% 10   30.26 30.34 0   0
Nov 11 23:21 WNW 9 9 Light Snow FEW014 SCT024 OVC033 20 14     77% 9   30.25   0    
Nov 11 23:09 WNW 9 3 Light Snow SCT014 BKN023 OVC033 20 15     81% 9   30.25   0    
Nov 11 23:02 WNW 7 1.5 Light Snow SCT013 BKN023 OVC031 20 15     81% 11   30.25   0    
Nov 11 22:55 WNW 7 2 Light Snow FEW013 SCT023 OVC031 20 14     77% 11   30.25 30.33 0    
Nov 11 21:55 WNW 9 10 Cloudy OVC035 21 11     65% 11   30.23 30.31      
Nov 11 20:55 WNW 7 10 Cloudy OVC036 21 13     70% 12   30.21 30.29   0  
Nov 11 19:55 NW 8 10 Cloudy OVC034 21 12     68% 11   30.19 30.27      
Nov 11 18:55 NW 10 10 Cloudy OVC036 21 12     68% 10   30.18 30.26 0    
Nov 11 18:07 NW 9 9 Light Snow OVC031 22 15     75% 12   30.16   0    
Nov 11 17:55 NW 11 9 Light Snow OVC029 22 15     75% 10   30.16 30.24 0   0
Nov 11 17:41 NW 10 8 Light Snow SCT014 OVC028 22 15     75% 11   30.15   0    
Nov 11 17:22 WNW 13 3 Light Snow BKN014 OVC031 23 17     78% 11   30.14   0    
Nov 11 16:55 NW 10 6 Light Snow FEW016 OVC034 24 17     74% 14   30.13 30.21 0    
Nov 11 16:19 NW 11 8 Light Snow FEW018 BKN034 OVC055 24 16     71% 13   30.11   0    
Nov 11 15:55 WNW 8 8 Light Snow FEW018 OVC028 24 16     71% 15   30.11 30.19 0    
Nov 11 14:55 NW 8 9 Light Snow FEW018 OVC026 25 16     68% 16   30.08 30.16 0 0  
Nov 11 13:55 WNW 9 4 Light Snow OVC020 25 16     68% 16   30.06 30.14 0    
Nov 11 12:55 WNW 8 5 Light Snow BKN022 OVC027 25 16     68% 16   30.05 30.13 0    
Nov 11 11:55 W 3 8 Light Snow BKN019 OVC060 25 17     71% 21   30.04 30.12 0   0
Nov 11 11:07 WSW 6 7 Light Snow BKN015 BKN046 OVC060 24 17     74% 17   30.03   0    
Nov 11 10:55 WSW 5 5 Light Snow FEW015 BKN046 OVC060 23 17     78% 17   30.03 30.11 0    
Nov 11 09:55 W 7 3 Light Snow SCT043 OVC055 22 16     78% 13   30.03 30.11 0    
Nov 11 09:02 Calm 3 Light Snow and Fog/Mist OVC039 21 17     84%     30.03   0    
Nov 11 08:55 SW 3 2 Light Snow and Fog/Mist OVC041 20 18     92% 15   30.03 30.11 0 0  
Nov 11 08:16 Calm 2 Light Snow and Fog/Mist BKN043 OVC050 20 16     84%     30.02   0    
Nov 11 08:02 Calm 1.5 Light Snow and Fog/Mist BKN046 OVC065 19 15     84%     30.02   0    
Nov 11 07:55 Calm 2 Light Snow and Fog/Mist BKN048 BKN055 OVC065 19 15     84%     30.02 30.11 0    
Nov 11 07:12 Calm 2 Light Snow BKN037 OVC060 18 15     88%     30.02   0    
Nov 11 06:55 S 3 4 Light Snow SCT060 BKN070 BKN085 18 14     84% 13   30.02 30.1 0    
Nov 11 05:55 S 3 6 Light Snow BKN070 OVC085 18 15     88% 13   30.01 30.1 0   0
Nov 11 05:04 S 5 3 Light Snow OVC036 18 14     84% 11   30.02   0    
Nov 11 04:55 S 5 2.5 Light Snow OVC036 18 15     88% 11   30.02 30.1 0    
Nov 11 04:47 S 5 1.5 Light Snow OVC038 18 15     88% 11   30.02   0    
Nov 11 04:29 S 5 2.5 Light Snow OVC042 18 14     84% 11   30.02   0    
Nov 11 03:55 SSE 3 1.75 Light Snow OVC038 18 14     84% 13   30.02 30.11 0    
Nov 11 03:47 S 5 2 Light Snow OVC034 18 14     84% 11   30.02   0    
Nov 11 03:38 SSE 5 3 Light Snow OVC030 18 14     84% 11   30.02   0    
Nov 11 03:33 SSE 6 2.5 Light Snow OVC028 18 14     84% 10   30.02   0    
Nov 11 03:28 SSE 5 1.75 Light Snow OVC030 18 14     84% 11   30.02   0    
Nov 11 02:55 SSE 6 2.5 Light Snow BKN048 BKN070 OVC095 17 14     88% 9   30.03 30.12 0 0  
Nov 11 02:02 SSE 7 3 Light Snow BKN047 OVC065 17 13     83% 8   30.04   0    
Nov 11 01:55 SSE 7 2.5 Light Snow BKN033 OVC065 17 13     83% 8   30.04 30.13 0    
Nov 11 01:40 SSE 7 2 Light Snow OVC032 18 13     80% 9   30.05   0    
Nov 11 01:04 SSE 7 4 Light Snow OVC045 17 12     80% 8   30.06   0    
Nov 11 00:55 SSE 7 2.5 Light Snow OVC047 17 12     80% 8   30.06 30.15 0    
Nov 10 23:55 SE 7 2.5 Light Snow OVC042 18 13     80% 9   30.08 30.16 0   0
Nov 10 22:55 SSE 9 2.5 Light Snow OVC037 18 13     80% 7   30.09 30.18 0    
Nov 10 22:02 S 8 2 Light Snow OVC032 18 13     80% 8   30.1   0    
Nov 10 21:55 S 9 1.75 Light Snow OVC032 18 13     80% 7   30.11 30.2 0    
Nov 10 21:45 S 9 1.75 Light Snow OVC030 18 13     80% 7   30.1   0    
Nov 10 21:38 SSE 7 2 Light Snow OVC026 18 13     80% 9   30.1   0    
Nov 10 21:13 S 8 1.5 Light Snow OVC022 18 13     80% 8   30.1   0    
Nov 10 20:55 SSE 8 2 Light Snow OVC024 18 13     80% 8   30.1 30.19 0 0  
Nov 10 20:46 SSE 8 1.5 Light Snow OVC024 18 13     80% 8   30.1   0    
Nov 10 20:29 SSE 6 2 Light Snow OVC026 18 13     80% 10   30.1   0    
Nov 10 20:16 S 7 1.75 Light Snow OVC028 18 13     80% 9   30.1   0    
Nov 10 20:08 SSE 8 2 Light Snow OVC030 18 12     77% 8   30.1   0    
Nov 10 20:01 SSE 8 1.75 Light Snow OVC028 18 12     77% 8   30.1   0    
Nov 10 19:55 S 7 2.5 Light Snow OVC032 18 12     77% 9   30.1 30.2 0    
Nov 10 19:20 S 8 3 Light Snow OVC034 19 10     67% 9   30.11   0    
Nov 10 19:05 S 9 2.5 Light Snow OVC034 19 10     67% 8   30.11   0    
Nov 10 18:55 S 9 3 Light Snow OVC042 19 9     64% 8   30.11 30.2 0    
Nov 10 17:55 S 8 10 Cloudy BKN070 OVC085 19 9     64% 9   30.12 30.22      
Nov 10 16:55 S 8 10 Cloudy FEW030 OVC100 19 10     67% 9   30.13 30.22      
Nov 10 15:55 S 7 10 Mostly Cloudy FEW030 BKN110 19 9     64% 10   30.14 30.24      
Nov 10 14:55 SSW 9 10 Mostly Cloudy FEW033 BKN110 19 8     62% 8   30.17 30.26      
Nov 10 13:55 SSW 9 10 Mostly Cloudy BKN110 19 8     62% 8   30.18 30.27      
Nov 10 12:55 S 8 10 Mostly Clear FEW014 19 10     67% 9   30.18 30.27      
Nov 10 11:55 S 7 10 Mostly Clear FEW014 17 8     67% 8   30.2 30.3      
Nov 10 10:55 3 10 Mostly Clear FEW020 16 7     67% 11   30.23 30.32      
Nov 10 09:55 SSW 3 10 Mostly Clear FEW040 14 6     70% 8   30.24 30.34      
Nov 10 08:55 W 3 10 Mostly Clear FEW040 14 9     80% 8   30.24 30.33      
Nov 10 07:55 SW 3 10 Mostly Clear FEW010 FEW040 7 3     83% 0   30.23 30.33      
Nov 10 06:55 NNE 3 10 Mostly Clear FEW010 10 4     76% 4   30.2 30.3      
Nov 10 05:55 WNW 6 10 Clear CLR 9 4     80% -1   30.23 30.33     0
Nov 10 04:55 NNW 9 10 Clear CLR 12 5     73% 0   30.22 30.31      
Nov 10 04:18 NNW 7 10 Partly Cloudy SCT018 11 5     76% 0   30.22        
Nov 10 03:55 NW 8 10 Mostly Cloudy BKN018 12 6     77% 0   30.22 30.32      
Nov 10 02:55 NW 5 10 Clear CLR 12 6     77% 4   30.21 30.3   0  
Nov 10 02:18 N 10 10 Mostly Clear FEW019 14 6     70% 1   30.2        
Nov 10 01:55 NNW 10 9 Mostly Cloudy BKN019 14 7     73% 1   30.21 30.29 0    
Nov 10 00:55 NW 10 10 Cloudy SCT010 OVC020 13 8     81% 0   30.2 30.29 0    
Nov 10 00:52 NW 10 10 Cloudy FEW007 SCT010 OVC020 12 7     79% -1   30.2   0    
Nov 10 00:46 NW 10 10 Cloudy BKN010 OVC020 13 7     77% 0   30.2   0    
Nov 10 00:30 NW 13 9 Light Snow BKN009 OVC015 13 7     77% -2   30.2   0    
Nov 09 23:41 NW 13 10 Mostly Cloudy BKN011 13 6     74% -2   30.18        
Nov 09 23:26 NW 11 10 Partly Cloudy SCT013 13 6     74% -1   30.18        
Nov 09 23:22 NW 14 10 Mostly Cloudy BKN013 BKN019 13 6     74% -2   30.18        
Nov 09 23:07 NNW 14 10 Mostly Cloudy BKN017 14 6     70% -1   30.17        
Nov 09 22:55 NW 16 10 Partly Cloudy SCT017 14 7     73% -2   30.17 30.26 0    
Nov 09 22:46 NNW 13 10 Mostly Clear FEW009 FEW014 14 7     73% 0   30.17   0    
May 13 21:55 WSW 9 10 Mostly Cloudy BKN120 65 42     43%     29.87 29.88      
May 13 09:55 W 10 10 Cloudy OVC100 61 29     30%     30.02 30.04      
May 13 07:55 WNW 8 10 Mostly Clear FEW120 53 30     41%     30.03 30.05      
May 12 10:55 E 6 10 Clear CLR 57 21     24%     30.17 30.2      
Notice The following observation data may not be complete
May 12 07:55 ENE 5 10 Clear CLR   24      %     30.15 30.19      
May 12 03:55 N 3 10 Clear CLR 30 21     69% 27   30.11 30.15      
Jun 11 10:55   4 Rain and Fog/Mist OVC095 59 57     93%     29.74   0    
Jun 11 06:55 Calm 10 Partly Cloudy SCT120 61 57     87%     29.77 29.76      
Notice The following observation data may not be complete
Jun 10 05:21   10 Mostly Cloudy SCT008 SCT042 BKN075   60      %     29.51   1    
Jun 08 23:55 ENE 5 10 Mostly Clear FEW100 57 53     87%     29.88 29.88      
Jun 08 03:55 Calm 10 Mostly Clear FEW120 56 52     87%     29.9 29.9      
Jun 07 21:24 ESE 7 10 Thunderstorms SCT050 BKN080 BKN120 66 46     48%     29.97        
Jun 07 13:55 S 10 10 Mostly Clear FEW120 79 51     38%   78 30.05 30.05      
Jun 06 01:55 Calm 10 Clear CLR 45 39     80%     30.12 30.14      
Jun 05 17:55 E 13 10 Clear CLR 68 46     45%     30.06 30.07      
Jun 05 14:55 E 13 10 Mostly Clear FEW045 69 49     49%     30.07 30.08